SWA1911 KPDX-KOAK

Flight info

Callsign SWA1911
Flight time 1h 24m
Altitude 39000
Route MINNE5 HISKU Q5 HUPTU DCT SPAMY WNDSR2
Aircraft B737/M-SDE2E3GIJ4J7RWZ/LB1D1

Departure

Time 2026-05-03 23:49
Airport Portland International Airport (KPDX)

Arrival

Time 2026-05-04 01:14
Airport San Francisco Bay Oakland International Airport (KOAK)
Time Latitude Longitude Altitude Speed Heading
2026-05-03 23:11 45.58886 -122.58770 30 ft 0 kts 212°
2026-05-03 23:41 45.58888 -122.58769 30 ft 3 kts 211°
2026-05-03 23:41 45.58911 -122.58752 30 ft 4 kts 195°
2026-05-03 23:41 45.58937 -122.58749 30 ft 4 kts 167°
2026-05-03 23:42 45.58959 -122.58764 30 ft 4 kts 130°
2026-05-03 23:42 45.58966 -122.58776 30 ft 1 kts 119°
2026-05-03 23:44 45.58964 -122.58772 30 ft 2 kts 119°
2026-05-03 23:45 45.58954 -122.58726 30 ft 10 kts 97°
2026-05-03 23:45 45.58964 -122.58589 30 ft 17 kts 89°
2026-05-03 23:45 45.58918 -122.58435 29 ft 17 kts 119°
2026-05-03 23:45 45.58862 -122.58293 29 ft 16 kts 119°
2026-05-03 23:46 45.58807 -122.58154 29 ft 16 kts 119°
2026-05-03 23:46 45.58747 -122.58000 29 ft 19 kts 119°
2026-05-03 23:46 45.58677 -122.57822 31 ft 22 kts 119°
2026-05-03 23:46 45.58599 -122.57622 31 ft 24 kts 119°
2026-05-03 23:47 45.58516 -122.57409 29 ft 26 kts 119°
2026-05-03 23:47 45.58429 -122.57185 30 ft 25 kts 119°
2026-05-03 23:47 45.58357 -122.57002 29 ft 15 kts 119°
2026-05-03 23:47 45.58368 -122.56893 30 ft 12 kts 35°
2026-05-03 23:48 45.58444 -122.56900 29 ft 12 kts 311°
2026-05-03 23:48 45.58490 -122.57018 28 ft 16 kts 300°
2026-05-03 23:48 45.58646 -122.57419 30 ft 79 kts 299°
2026-05-03 23:48 45.59007 -122.58345 29 ft 132 kts 299°
2026-05-03 23:49 45.59517 -122.59636 198 ft 159 kts 299°
2026-05-03 23:49 45.60033 -122.60988 803 ft 157 kts 299°
2026-05-03 23:49 45.60569 -122.62430 1138 ft 170 kts 300°
2026-05-03 23:49 45.61136 -122.63984 1580 ft 185 kts 300°
2026-05-03 23:50 45.61542 -122.65773 2091 ft 199 kts 284°
2026-05-03 23:50 45.61929 -122.67761 2462 ft 216 kts 299°
2026-05-03 23:50 45.62716 -122.69695 2814 ft 237 kts 302°
2026-05-03 23:50 45.63598 -122.71828 3188 ft 259 kts 302°
2026-05-03 23:51 45.64531 -122.74104 3808 ft 268 kts 301°
2026-05-03 23:51 45.65474 -122.76423 4585 ft 272 kts 302°
2026-05-03 23:51 45.66431 -122.78785 5373 ft 277 kts 302°
2026-05-03 23:51 45.67107 -122.81398 6111 ft 287 kts 275°
2026-05-03 23:52 45.66875 -122.84228 7013 ft 288 kts 255°
2026-05-03 23:52 45.66304 -122.86972 8015 ft 286 kts 252°
2026-05-03 23:52 45.65531 -122.89602 8904 ft 292 kts 233°
2026-05-03 23:52 45.64018 -122.91506 9814 ft 293 kts 206°
2026-05-03 23:53 45.62071 -122.92364 10565 ft 300 kts 188°
2026-05-03 23:53 45.59927 -122.92713 10813 ft 327 kts 184°
2026-05-03 23:53 45.57581 -122.92953 11179 ft 347 kts 183°
2026-05-03 23:53 45.55142 -122.93177 11905 ft 354 kts 183°
2026-05-03 23:54 45.52677 -122.93414 12776 ft 357 kts 183°
2026-05-03 23:54 45.50164 -122.93667 13504 ft 365 kts 183°
2026-05-03 23:54 45.47617 -122.93938 14325 ft 369 kts 183°
2026-05-03 23:54 45.45048 -122.94226 15138 ft 373 kts 183°
2026-05-03 23:55 45.42437 -122.94526 15881 ft 380 kts 184°
2026-05-03 23:55 45.39787 -122.94834 16749 ft 382 kts 183°
2026-05-03 23:55 45.37116 -122.95145 17526 ft 388 kts 184°
2026-05-03 23:55 45.34409 -122.95460 18297 ft 393 kts 183°
2026-05-03 23:56 45.31703 -122.95775 19000 ft 396 kts 183°
2026-05-03 23:56 45.28949 -122.96095 19728 ft 399 kts 183°
2026-05-03 23:56 45.26166 -122.96418 20441 ft 402 kts 182°
2026-05-03 23:56 45.23362 -122.96742 21110 ft 406 kts 182°
2026-05-03 23:57 45.20528 -122.96993 21774 ft 410 kts 179°
2026-05-03 23:57 45.17668 -122.96979 22476 ft 411 kts 176°
2026-05-03 23:57 45.14801 -122.96840 23165 ft 414 kts 175°
2026-05-03 23:57 45.11908 -122.96668 23732 ft 419 kts 175°
2026-05-03 23:58 45.08979 -122.96498 24242 ft 423 kts 175°
2026-05-03 23:58 45.06029 -122.96349 24753 ft 427 kts 175°
2026-05-03 23:58 45.03046 -122.96219 25268 ft 430 kts 175°
2026-05-03 23:58 45.00040 -122.96104 25767 ft 434 kts 175°
2026-05-03 23:59 44.97009 -122.95997 26262 ft 438 kts 175°
2026-05-03 23:59 44.93949 -122.95892 26776 ft 441 kts 175°
2026-05-03 23:59 44.90875 -122.95789 27264 ft 444 kts 175°
2026-05-03 23:59 44.87773 -122.95684 27726 ft 447 kts 175°
2026-05-04 00:00 44.84689 -122.95579 28164 ft 451 kts 175°
2026-05-04 00:00 44.81541 -122.95471 28581 ft 455 kts 175°
2026-05-04 00:00 44.78365 -122.95363 29017 ft 458 kts 175°
2026-05-04 00:00 44.75172 -122.95254 29453 ft 461 kts 175°
2026-05-04 00:01 44.71955 -122.95144 29916 ft 463 kts 175°
2026-05-04 00:01 44.68727 -122.95035 30274 ft 466 kts 175°
2026-05-04 00:01 44.65472 -122.94924 30586 ft 469 kts 175°
2026-05-04 00:01 44.62200 -122.94812 30893 ft 472 kts 175°
2026-05-04 00:02 44.58911 -122.94701 31236 ft 473 kts 175°
2026-05-04 00:02 44.55624 -122.94590 31663 ft 472 kts 175°
2026-05-04 00:02 44.52342 -122.94480 32121 ft 471 kts 175°
2026-05-04 00:02 44.49077 -122.94370 32614 ft 469 kts 175°
2026-05-04 00:03 44.45819 -122.94267 33072 ft 467 kts 175°
2026-05-04 00:03 44.42570 -122.94167 33430 ft 468 kts 175°
2026-05-04 00:03 44.39315 -122.94068 33749 ft 468 kts 175°
2026-05-04 00:03 44.36095 -122.93971 34097 ft 468 kts 175°
2026-05-04 00:04 44.32844 -122.93874 34472 ft 466 kts 175°
2026-05-04 00:04 44.29608 -122.93777 34859 ft 464 kts 176°
2026-05-04 00:04 44.26387 -122.93681 35294 ft 460 kts 176°
2026-05-04 00:04 44.23196 -122.93585 35703 ft 457 kts 176°
2026-05-04 00:05 44.20016 -122.93487 35949 ft 458 kts 176°
2026-05-04 00:05 44.16822 -122.93389 36161 ft 460 kts 176°
2026-05-04 00:05 44.13627 -122.93290 36448 ft 459 kts 176°
2026-05-04 00:05 44.10450 -122.93194 36842 ft 455 kts 176°
2026-05-04 00:06 44.07284 -122.93098 37135 ft 455 kts 176°
2026-05-04 00:06 44.04108 -122.93001 37319 ft 456 kts 176°
2026-05-04 00:06 44.00967 -122.92906 37517 ft 457 kts 176°
2026-05-04 00:06 43.97748 -122.92808 37800 ft 456 kts 176°
2026-05-04 00:07 43.94580 -122.92713 38089 ft 455 kts 176°
2026-05-04 00:07 43.91450 -122.92619 38326 ft 455 kts 176°
2026-05-04 00:07 43.88274 -122.92523 38521 ft 456 kts 176°
2026-05-04 00:07 43.85108 -122.92428 38711 ft 456 kts 176°
2026-05-04 00:08 43.81932 -122.92332 38842 ft 457 kts 176°
2026-05-04 00:08 43.78739 -122.92236 38843 ft 460 kts 176°
2026-05-04 00:08 43.72338 -122.92044 38853 ft 459 kts 176°
2026-05-04 00:09 43.65990 -122.91867 38843 ft 454 kts 177°
2026-05-04 00:09 43.59698 -122.91700 38848 ft 451 kts 177°
2026-05-04 00:10 43.53423 -122.91512 38849 ft 449 kts 176°
2026-05-04 00:10 43.47200 -122.91323 38872 ft 453 kts 177°
2026-05-04 00:11 43.40840 -122.91133 38863 ft 459 kts 177°
2026-05-04 00:11 43.34438 -122.90945 38855 ft 460 kts 177°
2026-05-04 00:12 43.28036 -122.90762 38851 ft 460 kts 177°
2026-05-04 00:12 43.21637 -122.90571 38866 ft 459 kts 177°
2026-05-04 00:13 43.15245 -122.90381 38841 ft 459 kts 177°
2026-05-04 00:13 43.08873 -122.90195 38872 ft 457 kts 177°
2026-05-04 00:14 43.02566 -122.90011 38851 ft 456 kts 177°
2026-05-04 00:14 42.96230 -122.89825 38861 ft 454 kts 176°
2026-05-04 00:15 42.89911 -122.89599 38850 ft 453 kts 176°
2026-05-04 00:15 42.83596 -122.89416 38862 ft 453 kts 176°
2026-05-04 00:16 42.77294 -122.89241 38866 ft 453 kts 177°
2026-05-04 00:16 42.70988 -122.89061 38865 ft 454 kts 176°
2026-05-04 00:17 42.64665 -122.88878 38876 ft 455 kts 177°
2026-05-04 00:17 42.58364 -122.88695 38897 ft 456 kts 177°
2026-05-04 00:18 42.52016 -122.88513 38895 ft 457 kts 177°
2026-05-04 00:18 42.45660 -122.88330 38911 ft 457 kts 177°
2026-05-04 00:19 42.39293 -122.88143 38902 ft 457 kts 177°
2026-05-04 00:19 42.32928 -122.87960 38910 ft 456 kts 177°
2026-05-04 00:20 42.26625 -122.87773 38907 ft 456 kts 177°
2026-05-04 00:20 42.20284 -122.87587 38901 ft 455 kts 177°
2026-05-04 00:21 42.13953 -122.87409 38900 ft 454 kts 178°
2026-05-04 00:21 42.07649 -122.87223 38901 ft 452 kts 176°
2026-05-04 00:22 42.02426 -122.87066 38908 ft 451 kts 177°
2026-05-04 00:22 41.96144 -122.86886 38908 ft 450 kts 176°
2026-05-04 00:23 41.89901 -122.86710 38911 ft 448 kts 177°
2026-05-04 00:23 41.83675 -122.86532 38908 ft 447 kts 177°
2026-05-04 00:24 41.77462 -122.86352 38911 ft 446 kts 178°
2026-05-04 00:24 41.71257 -122.86179 38916 ft 446 kts 177°
2026-05-04 00:25 41.65056 -122.85996 38910 ft 446 kts 177°
2026-05-04 00:25 41.58848 -122.85817 38923 ft 446 kts 177°
2026-05-04 00:26 41.52638 -122.85639 38917 ft 447 kts 177°
2026-05-04 00:26 41.46420 -122.85463 38928 ft 447 kts 177°
2026-05-04 00:27 41.40213 -122.85295 38919 ft 450 kts 177°
2026-05-04 00:27 41.33941 -122.85108 38927 ft 451 kts 176°
2026-05-04 00:28 41.27670 -122.84803 38926 ft 450 kts 175°
2026-05-04 00:28 41.21415 -122.84400 38942 ft 450 kts 175°
2026-05-04 00:29 41.15149 -122.84004 38918 ft 450 kts 175°
2026-05-04 00:29 41.08897 -122.83631 38916 ft 450 kts 175°
2026-05-04 00:30 41.02637 -122.83255 38909 ft 450 kts 175°
2026-05-04 00:30 40.96372 -122.82883 38910 ft 450 kts 175°
2026-05-04 00:31 40.90157 -122.82515 38905 ft 450 kts 175°
2026-05-04 00:31 40.83891 -122.82146 38892 ft 450 kts 175°
2026-05-04 00:32 40.77624 -122.81776 38876 ft 451 kts 175°
2026-05-04 00:32 40.71361 -122.81408 38873 ft 450 kts 175°
2026-05-04 00:33 40.61956 -122.80856 38875 ft 451 kts 175°
2026-05-04 00:34 40.55680 -122.80489 38870 ft 451 kts 176°
2026-05-04 00:34 40.49438 -122.80126 38870 ft 451 kts 176°
2026-05-04 00:35 40.43159 -122.79758 38876 ft 451 kts 175°
2026-05-04 00:35 40.36880 -122.79391 38867 ft 452 kts 175°
2026-05-04 00:36 40.30596 -122.79028 38885 ft 451 kts 175°
2026-05-04 00:36 40.24363 -122.78664 38891 ft 451 kts 176°
2026-05-04 00:37 40.18067 -122.78299 38894 ft 453 kts 177°
2026-05-04 00:37 40.11745 -122.77935 38895 ft 456 kts 176°
2026-05-04 00:38 40.05389 -122.77569 38898 ft 457 kts 176°
2026-05-04 00:38 39.99028 -122.77202 38895 ft 458 kts 177°
2026-05-04 00:39 39.92698 -122.76838 38890 ft 458 kts 177°
2026-05-04 00:39 39.86340 -122.76473 38897 ft 457 kts 177°
2026-05-04 00:40 39.79995 -122.76109 38824 ft 457 kts 177°
2026-05-04 00:40 39.76788 -122.75926 38212 ft 463 kts 176°
2026-05-04 00:40 39.73587 -122.75746 37617 ft 459 kts 174°
2026-05-04 00:40 39.70401 -122.75565 36968 ft 457 kts 175°
2026-05-04 00:41 39.67230 -122.75382 36324 ft 455 kts 175°
2026-05-04 00:41 39.64068 -122.75201 35651 ft 454 kts 174°
2026-05-04 00:41 39.60911 -122.75021 34914 ft 455 kts 173°
2026-05-04 00:41 39.57743 -122.74840 34132 ft 455 kts 173°
2026-05-04 00:42 39.54577 -122.74660 33261 ft 455 kts 173°
2026-05-04 00:42 39.51430 -122.74400 32493 ft 450 kts 167°
2026-05-04 00:42 39.48406 -122.73614 31956 ft 438 kts 158°
2026-05-04 00:42 39.45583 -122.72267 31390 ft 428 kts 153°
2026-05-04 00:43 39.42840 -122.70809 30802 ft 424 kts 152°
2026-05-04 00:43 39.40128 -122.69366 30243 ft 419 kts 153°
2026-05-04 00:43 39.37464 -122.67979 29682 ft 416 kts 153°
2026-05-04 00:43 39.34786 -122.66603 29047 ft 412 kts 153°
2026-05-04 00:44 39.32133 -122.65246 28501 ft 408 kts 153°
2026-05-04 00:44 39.29505 -122.63904 27899 ft 404 kts 153°
2026-05-04 00:44 39.26903 -122.62574 27326 ft 400 kts 153°
2026-05-04 00:44 39.24322 -122.61255 26757 ft 397 kts 153°
2026-05-04 00:45 39.21750 -122.59944 26222 ft 397 kts 153°
2026-05-04 00:45 39.19117 -122.58838 25651 ft 404 kts 166°
2026-05-04 00:45 39.16318 -122.58428 25217 ft 405 kts 169°
2026-05-04 00:45 39.13510 -122.58101 24706 ft 406 kts 169°
2026-05-04 00:46 39.10697 -122.57758 24177 ft 407 kts 169°
2026-05-04 00:46 39.07881 -122.57381 23648 ft 407 kts 169°
2026-05-04 00:46 39.05066 -122.56984 23049 ft 406 kts 169°
2026-05-04 00:46 39.02326 -122.56511 22615 ft 398 kts 166°
2026-05-04 00:47 38.99630 -122.55873 22173 ft 390 kts 165°
2026-05-04 00:47 38.96991 -122.55180 21761 ft 382 kts 164°
2026-05-04 00:47 38.94413 -122.54491 21333 ft 375 kts 165°
2026-05-04 00:47 38.91883 -122.53826 20955 ft 368 kts 165°
2026-05-04 00:48 38.89379 -122.53181 20574 ft 364 kts 165°
2026-05-04 00:48 38.86902 -122.52551 20193 ft 361 kts 166°
2026-05-04 00:48 38.84454 -122.51935 19824 ft 357 kts 166°
2026-05-04 00:48 38.82022 -122.51325 19451 ft 355 kts 166°
2026-05-04 00:49 38.79605 -122.50722 19086 ft 352 kts 165°
2026-05-04 00:49 38.77194 -122.50118 18709 ft 353 kts 166°
2026-05-04 00:49 38.74781 -122.49517 18341 ft 353 kts 166°
2026-05-04 00:49 38.72391 -122.48922 17934 ft 354 kts 166°
2026-05-04 00:50 38.69974 -122.48322 17524 ft 354 kts 166°
2026-05-04 00:50 38.67555 -122.47739 17126 ft 353 kts 168°
2026-05-04 00:50 38.65121 -122.47305 16757 ft 353 kts 170°
2026-05-04 00:50 38.62684 -122.46945 16381 ft 352 kts 171°
2026-05-04 00:51 38.60254 -122.46603 16016 ft 350 kts 172°
2026-05-04 00:51 38.57839 -122.46260 15647 ft 347 kts 171°
2026-05-04 00:51 38.55448 -122.45911 15268 ft 343 kts 171°
2026-05-04 00:51 38.53092 -122.45562 14898 ft 339 kts 171°
2026-05-04 00:52 38.50764 -122.45214 14549 ft 336 kts 171°
2026-05-04 00:52 38.48445 -122.44863 14202 ft 333 kts 171°
2026-05-04 00:52 38.46144 -122.44514 13862 ft 331 kts 171°
2026-05-04 00:52 38.43892 -122.44173 13489 ft 330 kts 170°
2026-05-04 00:53 38.41590 -122.43824 13117 ft 328 kts 171°
2026-05-04 00:53 38.39327 -122.43480 12758 ft 327 kts 171°
2026-05-04 00:53 38.37106 -122.43142 12411 ft 325 kts 171°
2026-05-04 00:53 38.34863 -122.42801 12066 ft 324 kts 171°
2026-05-04 00:54 38.32632 -122.42463 11713 ft 322 kts 171°
2026-05-04 00:54 38.30407 -122.42126 11388 ft 321 kts 171°
2026-05-04 00:54 38.28193 -122.41791 11048 ft 320 kts 171°
2026-05-04 00:54 38.25987 -122.41457 10704 ft 317 kts 171°
2026-05-04 00:55 38.23821 -122.41130 10373 ft 310 kts 170°
2026-05-04 00:55 38.21700 -122.40805 10051 ft 304 kts 171°
2026-05-04 00:55 38.19636 -122.40488 9935 ft 290 kts 171°
2026-05-04 00:55 38.17658 -122.40188 9461 ft 289 kts 172°
2026-05-04 00:56 38.15686 -122.39888 9108 ft 284 kts 172°
2026-05-04 00:56 38.13737 -122.39588 8784 ft 279 kts 172°
2026-05-04 00:56 38.11831 -122.39292 8478 ft 273 kts 172°
2026-05-04 00:56 38.09981 -122.39007 8187 ft 269 kts 172°
2026-05-04 00:57 38.08135 -122.38724 7911 ft 266 kts 171°
2026-05-04 00:57 38.06308 -122.38444 7621 ft 263 kts 172°
2026-05-04 00:57 38.04496 -122.38167 7335 ft 262 kts 172°
2026-05-04 00:57 38.02683 -122.37863 7064 ft 263 kts 166°
2026-05-04 00:58 38.01043 -122.36929 6926 ft 257 kts 147°
2026-05-04 00:58 37.99598 -122.35628 6780 ft 253 kts 143°
2026-05-04 00:58 37.98193 -122.34268 6686 ft 255 kts 143°
2026-05-04 00:58 37.96770 -122.32880 6552 ft 260 kts 143°
2026-05-04 00:59 37.95354 -122.31451 6460 ft 259 kts 141°
2026-05-04 00:59 37.93925 -122.30041 6265 ft 258 kts 143°
2026-05-04 00:59 37.92489 -122.28716 6136 ft 253 kts 144°
2026-05-04 00:59 37.91093 -122.27388 6026 ft 250 kts 143°
2026-05-04 01:00 37.89709 -122.26062 5919 ft 249 kts 143°
2026-05-04 01:00 37.88318 -122.24739 5792 ft 251 kts 144°
2026-05-04 01:00 37.86912 -122.23400 5712 ft 255 kts 144°
2026-05-04 01:00 37.85489 -122.22042 5597 ft 256 kts 144°
2026-05-04 01:01 37.84066 -122.20683 5469 ft 256 kts 144°
2026-05-04 01:01 37.82639 -122.19345 5339 ft 255 kts 145°
2026-05-04 01:01 37.81230 -122.18011 5232 ft 252 kts 144°
2026-05-04 01:01 37.79835 -122.16681 5122 ft 254 kts 144°
2026-05-04 01:02 37.78424 -122.15297 5050 ft 257 kts 139°
2026-05-04 01:02 37.77259 -122.13625 5007 ft 249 kts 129°
2026-05-04 01:02 37.76265 -122.11914 4999 ft 235 kts 128°
2026-05-04 01:02 37.75313 -122.10305 4993 ft 223 kts 130°
2026-05-04 01:03 37.74397 -122.08790 4989 ft 217 kts 130°
2026-05-04 01:03 37.73467 -122.07274 4988 ft 215 kts 129°
2026-05-04 01:03 37.72567 -122.05803 5004 ft 213 kts 130°
2026-05-04 01:03 37.71662 -122.04325 4991 ft 213 kts 130°
2026-05-04 01:04 37.70751 -122.02841 4997 ft 214 kts 130°
2026-05-04 01:04 37.69840 -122.01360 4999 ft 213 kts 130°
2026-05-04 01:04 37.68933 -121.99875 5000 ft 213 kts 129°
2026-05-04 01:04 37.68033 -121.98384 5012 ft 214 kts 129°
2026-05-04 01:05 37.67134 -121.96899 4997 ft 209 kts 130°
2026-05-04 01:05 37.66271 -121.95474 4977 ft 200 kts 130°
2026-05-04 01:05 37.65436 -121.94096 4984 ft 198 kts 130°
2026-05-04 01:05 37.64586 -121.92707 4922 ft 202 kts 130°
2026-05-04 01:06 37.63718 -121.91293 4858 ft 205 kts 130°
2026-05-04 01:06 37.62822 -121.89922 4756 ft 203 kts 141°
2026-05-04 01:06 37.61571 -121.89219 4706 ft 199 kts 177°
2026-05-04 01:06 37.60218 -121.89647 4686 ft 208 kts 211°
2026-05-04 01:07 37.59275 -121.91049 4690 ft 215 kts 239°
2026-05-04 01:07 37.58638 -121.92775 4642 ft 218 kts 242°
2026-05-04 01:07 37.58026 -121.94536 4564 ft 220 kts 243°
2026-05-04 01:07 37.57408 -121.96311 4464 ft 221 kts 243°
2026-05-04 01:08 37.56797 -121.98077 4428 ft 218 kts 242°
2026-05-04 01:08 37.56439 -121.99941 4224 ft 226 kts 273°
2026-05-04 01:08 37.57033 -122.01726 4039 ft 228 kts 302°
2026-05-04 01:08 37.58040 -122.03249 3746 ft 222 kts 307°
2026-05-04 01:09 37.59035 -122.04681 3448 ft 211 kts 306°
2026-05-04 01:09 37.59966 -122.06063 3162 ft 202 kts 306°
2026-05-04 01:09 37.60847 -122.07386 2902 ft 190 kts 305°
2026-05-04 01:09 37.61668 -122.08626 2651 ft 178 kts 305°
2026-05-04 01:10 37.62450 -122.09808 2425 ft 175 kts 305°
2026-05-04 01:10 37.63220 -122.10970 2180 ft 170 kts 304°
2026-05-04 01:10 37.63950 -122.12071 1943 ft 162 kts 306°
2026-05-04 01:10 37.64647 -122.13124 1757 ft 149 kts 306°
2026-05-04 01:11 37.65283 -122.14083 1557 ft 135 kts 304°
2026-05-04 01:11 37.65879 -122.14985 1359 ft 131 kts 304°
2026-05-04 01:11 37.66455 -122.15854 1186 ft 130 kts 302°
2026-05-04 01:11 37.67060 -122.16770 1023 ft 139 kts 307°
2026-05-04 01:12 37.67678 -122.17700 822 ft 137 kts 304°
2026-05-04 01:12 37.68272 -122.18594 644 ft 130 kts 305°
2026-05-04 01:12 37.68847 -122.19461 453 ft 129 kts 304°
2026-05-04 01:12 37.69412 -122.20314 308 ft 130 kts 304°
2026-05-04 01:13 37.69993 -122.21196 103 ft 132 kts 303°
2026-05-04 01:13 37.70616 -122.22122 20 ft 136 kts 303°
2026-05-04 01:13 37.71151 -122.22930 8 ft 102 kts 311°
2026-05-04 01:13 37.71507 -122.23463 6 ft 64 kts 310°
2026-05-04 01:14 37.71700 -122.23753 8 ft 26 kts 309°
2026-05-04 01:14 37.71814 -122.23923 9 ft 24 kts 310°
2026-05-04 01:14 37.71909 -122.24047 8 ft 11 kts 352°
2026-05-04 01:14 37.71969 -122.24001 9 ft 10 kts 38°
2026-05-04 01:15 37.71995 -122.23958 8 ft 10 kts 84°
2026-05-04 01:15 37.71964 -122.23878 8 ft 12 kts 129°
2026-05-04 01:15 37.71903 -122.23781 8 ft 17 kts 122°
2026-05-04 01:15 37.71834 -122.23638 8 ft 21 kts 121°
2026-05-04 01:16 37.71749 -122.23462 8 ft 26 kts 121°
2026-05-04 01:16 37.71633 -122.23273 8 ft 29 kts 131°
2026-05-04 01:16 37.71505 -122.23083 8 ft 28 kts 130°
2026-05-04 01:16 37.71385 -122.22904 8 ft 26 kts 130°
2026-05-04 01:17 37.71274 -122.22738 8 ft 24 kts 130°
2026-05-04 01:17 37.71170 -122.22581 8 ft 23 kts 130°
2026-05-04 01:17 37.71059 -122.22414 8 ft 26 kts 130°
2026-05-04 01:17 37.70941 -122.22239 8 ft 25 kts 130°
2026-05-04 01:18 37.70832 -122.22074 8 ft 24 kts 130°
2026-05-04 01:18 37.70729 -122.21920 8 ft 23 kts 130°
2026-05-04 01:18 37.70691 -122.21786 8 ft 14 kts 55°
2026-05-04 01:18 37.70763 -122.21706 8 ft 13 kts 40°
2026-05-04 01:19 37.70833 -122.21633 8 ft 13 kts 40°
2026-05-04 01:19 37.70902 -122.21564 9 ft 12 kts 37°
2026-05-04 01:19 37.70970 -122.21499 8 ft 12 kts 37°
2026-05-04 01:19 37.71036 -122.21437 8 ft 12 kts 37°
2026-05-04 01:20 37.71091 -122.21365 8 ft 11 kts 59°
2026-05-04 01:20 37.71118 -122.21314 8 ft 3 kts 54°
2026-05-04 01:20 37.71122 -122.21306 8 ft 1 kts 56°
2026-05-04 01:20 37.71124 -122.21302 8 ft 0 kts 56°